User: anonymous   Login
Location: Home
(42.5358°N, 72.7383°W)
Time: 19:31:05
(UTC-05:00)
Language:

Tiangong - Orbit

View from above orbital plane
View from above orbital plane
View from above satellite
View from above satellite

Ground track
Ground track

The orbit data is extracted from the following two-line orbital elements,

1 48274U 21035A   23333.71636066  .00047203  00000-0  50535-3 0  9992
2 48274  41.4701 227.9386 0007626 245.8261 114.1781 15.62997069147717
Epoch (UTC): 29 November 2023 17:11:33
Eccentricity: 0.0007626
inclination: 41.4701°
perigee height: 374 km
apogee height: 384 km
right ascension of ascending node: 227.9386°
argument of perigee: 245.8261°
revolutions per day: 15.62997069
mean anomaly at epoch: 114.1781°
orbit number at epoch: 14771

The dashed part of the orbit path shows where the satellite is in the earth's shadow,  

DLR